Location: Plzen
(49.7500°N, 13.3670°E)
Time: 10:54:00
(UTC+02:00)

ISS - Visible Passes

Search period start: 08 May 2026 00:00
Search period end: 18 May 2026 00:00
Orbit: 414 x 424 km, 51.6° (Epoch: 8 May)

Date Brightness Start Highest point End Pass type
(mag) Time Alt. Az. Time Alt. Az. Time Alt. Az.
8 May -3.8 02:34:32 77° NW 02:34:43 83° NNE 02:38:05 10° ESE visible
8 May -2.9 04:08:21 10° W 04:11:18 29° SW 04:14:15 10° SSE visible
8 May -3.5 22:30:11 10° SW 22:33:22 43° SSE 22:35:05 23° E visible
9 May -1.9 00:06:47 10° W 00:08:14 24° W 00:08:14 24° W visible
9 May -3.4 03:24:03 40° SSW 03:24:03 40° SSW 03:27:01 10° SE visible
9 May -3.0 21:42:55 10° SSW 21:45:53 30° SSE 21:48:53 10° E visible
9 May -3.8 23:19:09 10° WSW 23:22:30 80° NNW 23:24:24 24° ENE visible
10 May -1.7 00:56:09 10° WNW 00:57:25 21° WNW 00:57:25 21° WNW visible
10 May -3.9 22:31:33 10° WSW 22:34:53 82° SSE 22:38:16 10° ENE visible
11 May -3.3 00:08:30 10° W 00:11:49 60° N 00:12:10 56° NNE visible
11 May -3.8 21:44:01 10° WSW 21:47:19 61° SSE 21:50:38 10° ENE visible
11 May -3.3 23:20:51 10° W 23:24:10 62° N 23:26:26 19° ENE visible
12 May -2.0 00:57:47 10° WNW 00:59:23 26° WNW 00:59:23 26° WNW visible
12 May -3.5 22:33:10 10° W 22:36:30 68° N 22:39:52 10° ENE visible
13 May -3.6 00:10:09 10° WNW 00:13:28 70° N 00:13:28 70° N visible
13 May -3.7 21:45:30 10° WSW 21:48:51 80° NNW 21:52:12 10° ENE visible
13 May -3.4 23:22:30 10° WNW 23:25:50 62° N 23:27:29 26° E visible
14 May -1.6 00:59:21 10° WNW 01:00:24 18° W 01:00:24 18° W visible
14 May -3.3 22:34:49 10° W 22:38:08 60° N 22:41:26 10° E visible
15 May -3.3 00:11:42 10° WNW 00:14:22 53° W 00:14:22 53° W visible
15 May -3.3 21:47:07 10° W 21:50:26 62° N 21:53:45 10° ENE visible
15 May -3.8 23:24:03 10° WNW 23:27:24 82° NNE 23:28:19 45° E visible
16 May -1.0 01:01:02 10° W 01:01:14 11° W 01:01:14 11° W visible
16 May -3.5 22:36:23 10° WNW 22:39:43 69° N 22:42:14 16° E visible
17 May -2.3 00:13:15 10° W 00:15:10 28° W 00:15:10 28° W visible
17 May -3.3 21:48:41 10° WNW 21:52:01 62° N 21:55:20 10° E visible
17 May -3.8 23:25:32 10° WNW 23:28:51 58° SSW 23:29:05 56° S visible
